Regional Weather Roundup
Issued by NWS

Home | Current Version | Previous Version | Text Only | Print | Product List | Glossary On
Versions: 1 2 3 4 5 6 7 8 9 10 11 12 13 14 15 16 17 18 19 20 21 22 23 24 25 26 27 28 29 30 31 32 33 34 35 36 37 38 39 40 41 42 43 44 45 46 47 48 49 50
000
ASUS43 KDTX 231801
RWRMI
MICHIGAN HOURLY REGIONAL WEATHER ROUNDUP
NATIONAL WEATHER SERVICE DETROIT/PONTIAC MI
200 PM EDT MON APR 23 2018

NOTE: "FAIR" INDICATES FEW OR NO CLOUDS BELOW 12,000 FEET WITH NO
SIGNIFICANT WEATHER AND/OR OBSTRUCTION TO VISIBILITY.

MIZ047>049-052>055-059>063-066>070-074>076-081>083-231900-
SOUTHEAST LOWER MICHIGAN

CITY           SKY/WX    TMP DP  RH WIND       PRES   REMARKS
ADRIAN         FAIR      67  43  41 SE7       30.17F
6HR MIN TEMP:  45; 6HR MAX TEMP:  67;

ALMA           FAIR      67  39  35 NE8G18    30.20F
6HR MIN TEMP:  39; 6HR MAX TEMP:  67;

ANN ARBOR      FAIR      67  43  41 E8        30.17F
BAD AXE        FAIR      68  15  13 E14G20    30.24F
6HR MIN TEMP:  47; 6HR MAX TEMP:  68;

CARO           FAIR      70  32  25 SE9G18    30.20F
DETROIT CITY   FAIR      66  42  41 E10       30.21F
6HR MIN TEMP:  45; 6HR MAX TEMP:  66;

DETROIT        PTSUNNY   68  42  38 E7        30.19F
6HR MIN TEMP:  46; 6HR MAX TEMP:  69;

FLINT          FAIR      69  41  36 E12       30.19F
6HR MIN TEMP:  41; 6HR MAX TEMP:  69;

GROSSE ILE     FAIR      63  43  48 S3        30.18F
6HR MIN TEMP:  44; 6HR MAX TEMP:  65;

HILLSDALE      FAIR      66  41  39 E8        30.16F
HOWELL         FAIR      66  37  33 E12       30.18F
6HR MIN TEMP:  45; 6HR MAX TEMP:  67;


CITY           SKY/WX    TMP DP  RH WIND       PRES   REMARKS
JACKSON        FAIR      68  41  37 SE10      30.17F
6HR MIN TEMP:  42; 6HR MAX TEMP:  68;

LAMBERTVILLE   FAIR      64  43  45 E7        30.17F
6HR MIN TEMP:  47; 6HR MAX TEMP:  64;

LANSING        FAIR      69  40  34 E6G16     30.18F
6HR MIN TEMP:  40; 6HR MAX TEMP:  70;

LAPEER         FAIR      67  39  35 E8G17     30.21F
6HR MIN TEMP:  44; 6HR MAX TEMP:  67;

MASON          FAIR      70  31  23 E9        30.17F
6HR MIN TEMP:  44; 6HR MAX TEMP:  71;

MONROE         FAIR      64  41  43 SE9       30.18F
6HR MIN TEMP:  44; 6HR MAX TEMP:  64;

PONTIAC        PTSUNNY   65  41  41 E8        30.19F
6HR MIN TEMP:  47; 6HR MAX TEMP:  66;

PORT HOPE        N/A     47  37  68 E10       30.24F
6HR MIN TEMP:  41; 6HR MAX TEMP:  47;

PORT HURON     FAIR      68  37  32 SE10G18   30.22F
TRI CITIES     FAIR      63  39  41 NE12      30.22F
6HR MIN TEMP:  40; 6HR MAX TEMP:  63;

MIDLAND        FAIR      62  40  43 E6        30.21F
6HR MIN TEMP:  35; 6HR MAX TEMP:  62;

TROY           FAIR      65  37  34 E5        30.23F
SAGINAW HB     FAIR      64  39  39 N13       30.20F
$$
MIZ043>046-050>051-056>058-064>065-071>073-077>080-231900-
SOUTHWEST LOWER MICHIGAN

CITY           SKY/WX    TMP DP  RH WIND       PRES   REMARKS
BATTLE CREEK   FAIR      68  40  35 E8        30.16F
6HR MIN TEMP:  44; 6HR MAX TEMP:  69;

BENTON HARBOR  FAIR      71  37  28 SE14      30.12F
6HR MIN TEMP:  46; 6HR MAX TEMP:  72;

BIG RAPIDS     FAIR      67  15  13 SE12G21   30.18F
6HR MIN TEMP:  37; 6HR MAX TEMP:  67;

COLDWATER      FAIR      68  41  37 E9        30.14F
6HR MIN TEMP:  43; 6HR MAX TEMP:  68;

HOLLAND        FAIR      69  39  33 E10       30.15F
6HR MIN TEMP:  44; 6HR MAX TEMP:  69;

GRAND RAPIDS   PTSUNNY   66  40  38 E15       30.17F
6HR MIN TEMP:  43; 6HR MAX TEMP:  66;

IONIA          FAIR      65  38  36 E12       30.17F
6HR MIN TEMP:  40; 6HR MAX TEMP:  65;

KALAMAZOO      FAIR      71  38  29 E12       30.15F
6HR MIN TEMP:  44; 6HR MAX TEMP:  71;

LUDINGTON      FAIR      65  31  28 NW9       30.18F
6HR MIN TEMP:  38; 6HR MAX TEMP:  66;

MARSHALL       FAIR      67  39  35 E9        30.15F
6HR MIN TEMP:  42; 6HR MAX TEMP:  68;

MOUNT PLEASANT FAIR      69  36  30 E6G17     30.19F
6HR MIN TEMP:  40; 6HR MAX TEMP:  69;

MUSKEGON       PTSUNNY   71  32  23 E12       30.16F
6HR MIN TEMP:  43; 6HR MAX TEMP:  71;

SOUTH HAVEN    FAIR      71  32  23 E10       30.13F
$$
MIZ016>042-231900-
NORTHERN LOWER MICHIGAN

CITY           SKY/WX    TMP DP  RH WIND       PRES   REMARKS
ALPENA         FAIR      53  27  36 E8        30.27F
6HR MIN TEMP:  28; 6HR MAX TEMP:  55;

BEAVER ISLAND    N/A    N/A N/A N/A MISG        N/A
BELLAIRE       FAIR      63  14  14 S3        30.23F
6HR MIN TEMP:  31; 6HR MAX TEMP:  63;

CADILLAC       FAIR      65  23  20 SE9       30.20F
CHARLEVOIX     FAIR      54  27  36 N5        30.28F
6HR MIN TEMP:  38; 6HR MAX TEMP:  54;

FRANKFORT      FAIR      61  27  27 N10       30.22F
GAYLORD        FAIR      59  13  16 CALM      30.24F
6HR MIN TEMP:  33; 6HR MAX TEMP:  60;

GRAYLING       FAIR      64  22  20 SE5       30.21F
6HR MIN TEMP:  29; 6HR MAX TEMP:  64;

HARBOR SPRINGS FAIR      52  29  41 SW3       30.25F
HOUGHTON LAKE  FAIR      66  22  18 SE9       30.21F
6HR MIN TEMP:  32; 6HR MAX TEMP:  68;

MANISTEE       FAIR      60  30  32 NW16G23   30.20F
OSCODA         FAIR      53  26  35 E7        30.26F
6HR MIN TEMP:  33; 6HR MAX TEMP:  53;

PELLSTON       FAIR      63  22  20 NE3       30.25F
6HR MIN TEMP:  31; 6HR MAX TEMP:  63;

ROGERS CITY    FAIR      50  36  58 CALM      30.28F
TRAVERSE CITY  PTSUNNY   59  32  36 N6        30.21F
6HR MIN TEMP:  34; 6HR MAX TEMP:  61;

$$
MIZ007>008-015-231900-
EASTERN UPPER MICHIGAN

CITY           SKY/WX    TMP DP  RH WIND       PRES   REMARKS
KINROSS        FAIR      58  23  26 SW8       30.26F
6HR MIN TEMP:  37; 6HR MAX TEMP:  58;

MACKINAC ISLAN FAIR      52  25  35 NE3       30.26F
6HR MIN TEMP:  45; 6HR MAX TEMP:  52; 6HR PCP:  0.03;

NEWBERRY       FAIR      54  21  27 S6        30.24F
6HR MIN TEMP:  41; 6HR MAX TEMP:  54;

S. S. MARIE    FAIR      59  27  29 SE7       30.25F
6HR MIN TEMP:  37; 6HR MAX TEMP:  59;

MUNISING         N/A     62  21  20 S6        30.21F
6HR MIN TEMP:  39; 6HR MAX TEMP:  62;

$$
MIZ004>006-011>014-085-231900-
CENTRAL UPPER MICHIGAN

CITY           SKY/WX    TMP DP  RH WIND       PRES   REMARKS
MANISTIQUE     FAIR      49  24  38 S5        30.25F
6HR MIN TEMP:  36; 6HR MAX TEMP:  51;

ESCANABA       FAIR      54  30  40 SE8       30.23F
6HR MIN TEMP:  31; 6HR MAX TEMP:  55;

MENOMINEE      FAIR      53  33  46 SE7       30.23F
6HR MIN TEMP:  31; 6HR MAX TEMP:  57;

SAWYER-GWINN   SUNNY     57  21  24 S10       30.21F
$$
MIZ001>003-009>011-084-231900-
WESTERN UPPER MICHIGAN

CITY           SKY/WX    TMP DP  RH WIND       PRES   REMARKS
IRON MOUNTAIN  FAIR      62  19  19 S6        30.20F
6HR MIN TEMP:  29; 6HR MAX TEMP:  63;

HOUGHTON       FAIR      57  29  34 W12       30.18F
6HR MIN TEMP:  39; 6HR MAX TEMP:  59;

COPPER HARBOR    N/A     54  27  35 CALM      30.17F
IRONWOOD       FAIR      59  31  34 W6        30.19F
6HR MIN TEMP:  43; 6HR MAX TEMP:  60;

$$

ABBREVIATIONS USED IN REMARKS
   TC - TEMPERATURE IN CELSIUS
  WCI - WIND CHILL INDEX
   HX - HEAT INDEX
  VSB - VISIBILITY





USA.gov is the U.S. government's official web portal to all federal, state and local government web resources and services.